Location: ?????
(37.7324°N, 23.9257°E)
Time: 07:14:48
(UTC+00:00)

SAR-Lupe-4 - Pass Details

Date: 29 November 2020
Orbit: 481 x 484 km, 98.2° (Epoch: 09 January)

Event Time Altitude Azimuth Distance (km) Brightness Sun altitude
Rises 03:40:23 0° 167° (SSE) 2,526 7.6 -19.1°
Reaches altitude 10° 03:42:25 10° 167° (SSE) 1,652 6.6 -18.8°
Maximum altitude 03:45:58 87° 251° (WSW) 487 3.4 -18.1°
Enters shadow 03:48:14 21° 346° (NNW) 1,119 5.1 -17.6°
